Zurück zum Katalog

ASIASAT 2 PKM

AktivKommunikationHEO
NORAD 23725·ROCKET BODY·🇨🇳 China

Gestartet Nov 28, 1995 von Xichang Satellite Launch Center

Loading…

Nächste Überflüge (nächste 24 Stunden)

TLE

AktuellSource: Space-Track

Epoche: Sep 13, 2026, 23:06 UTC

1 23725U 95064C   26256.96271459  .00004492  00000-0  58832-3 0  9995
2 23725  25.7098 170.3898 5505568 196.1130 135.1213  4.82183511451899

Verfolge ASIASAT 2 PKM in Echtzeit mit AllMySat

Download on the App Store